When you browse on this site, cookies collect data to enhance your experience and personalize the content and advertising you see.
Visit our Privacy Policy to learn more. By continuing to use the site, you agree to this use of cookies and data.
  • Em Portugal
  • Lista de países
  • Para 7 dias
  • Temperatura da água
  • Mapas de satélite
  • Mapa do tempo
  • Widgets de tempo
  • user-avatar
    Iniciar Sessão

    Previsão horária em Mangush

    Hoje, 25 Maio, Sábado

    Tempo Temperatura Precipitação Vento Pressão Humidade
    00:00 +17°C° 0.1 mm 2 m/s 750 mmHg 71%
    01:00 +17°C° 0.1 mm 3 m/s 750 mmHg 75%
    02:00 +16°C° 0 mm 3 m/s 749 mmHg 80%
    03:00 +16°C° 0.6 mm 3 m/s 749 mmHg 84%
    04:00 +16°C° 0.6 mm 3 m/s 749 mmHg 88%
    05:00 +17°C° 0.6 mm 3 m/s 750 mmHg 92%
    06:00 +18°C° 0.3 mm 4 m/s 749 mmHg 89%
    07:00 +19°C° 0.3 mm 4 m/s 749 mmHg 85%
    08:00 +20°C° 0 mm 4 m/s 749 mmHg 81%
    09:00 +21°C° 0.8 mm 4 m/s 749 mmHg 79%
    10:00 +21°C° 0.8 mm 4 m/s 749 mmHg 78%
    11:00 +22°C° 0.8 mm 4 m/s 749 mmHg 76%
    12:00 +22°C° 0.5 mm 5 m/s 749 mmHg 76%
    13:00 +21°C° 0.5 mm 5 m/s 749 mmHg 77%
    14:00 +21°C° 0.5 mm 5 m/s 749 mmHg 78%
    15:00 +21°C° 0.1 mm 5 m/s 749 mmHg 77%
    16:00 +21°C° 0.1 mm 5 m/s 749 mmHg 77%
    17:00 +20°C° 0.1 mm 5 m/s 748 mmHg 77%
    18:00 +19°C° 0 mm 4 m/s 748 mmHg 80%
    19:00 +18°C° 0 mm 4 m/s 748 mmHg 83%
    20:00 +18°C° 0 mm 4 m/s 748 mmHg 86%
    21:00 +16°C° 0.1 mm 5 m/s 748 mmHg 85%
    22:00 +16°C° 0.1 mm 5 m/s 749 mmHg 85%
    23:00 +16°C° 0.1 mm 6 m/s 749 mmHg 85%

    Amanhã, 26 Maio, Domingo

    Tempo Temperatura Precipitação Vento Pressão Humidade
    00:00 +16°C° 0.4 mm 5 m/s 749 mmHg 87%
    01:00 +16°C° 0.4 mm 5 m/s 749 mmHg 88%
    02:00 +15°C° 0.4 mm 5 m/s 749 mmHg 90%
    03:00 +15°C° 0 mm 5 m/s 749 mmHg 91%
    04:00 +15°C° 0 mm 5 m/s 749 mmHg 91%
    05:00 +15°C° 0 mm 5 m/s 749 mmHg 92%
    06:00 +16°C° 0 mm 6 m/s 749 mmHg 90%
    07:00 +17°C° 0 mm 6 m/s 750 mmHg 89%
    08:00 +17°C° 0 mm 7 m/s 750 mmHg 87%
    09:00 +20°C° 0.3 mm 6 m/s 750 mmHg 81%
    10:00 +21°C° 0.3 mm 6 m/s 750 mmHg 76%
    11:00 +22°C° 0.3 mm 6 m/s 750 mmHg 71%
    12:00 +23°C° 1.1 mm 6 m/s 750 mmHg 69%
    13:00 +23°C° 1.1 mm 6 m/s 750 mmHg 68%
    14:00 +23°C° 1.1 mm 6 m/s 750 mmHg 66%
    15:00 +23°C° 1.2 mm 5 m/s 750 mmHg 68%
    16:00 +23°C° 1.2 mm 5 m/s 751 mmHg 71%
    17:00 +23°C° 1.2 mm 4 m/s 751 mmHg 73%
    18:00 +22°C° 0.1 mm 4 m/s 751 mmHg 76%
    19:00 +21°C° 0.1 mm 4 m/s 752 mmHg 78%
    20:00 +19°C° 0.1 mm 3 m/s 752 mmHg 81%
    21:00 +19°C° 0 mm 3 m/s 752 mmHg 83%
    22:00 +18°C° 0 mm 3 m/s 753 mmHg 85%
    23:00 +18°C° 0 mm 4 m/s 753 mmHg 87%

    Depois de amanhã, 27 Maio, Segunda-feira

    Tempo Temperatura Precipitação Vento Pressão Humidade
    00:00 +17°C° 0 mm 4 m/s 754 mmHg 87%
    01:00 +17°C° 0 mm 4 m/s 754 mmHg 88%
    02:00 +17°C° 0 mm 4 m/s 754 mmHg 88%
    03:00 +17°C° 0 mm 3 m/s 755 mmHg 88%
    04:00 +17°C° 0 mm 3 m/s 755 mmHg 87%
    05:00 +17°C° 0 mm 3 m/s 755 mmHg 86%
    06:00 +19°C° 0 mm 3 m/s 756 mmHg 80%
    07:00 +20°C° 0 mm 2 m/s 756 mmHg 74%
    08:00 +23°C° 0 mm 2 m/s 757 mmHg 68%
    09:00 +24°C° 0 mm 2 m/s 757 mmHg 63%
    10:00 +25°C° 0 mm 2 m/s 757 mmHg 58%
    11:00 +26°C° 0 mm 3 m/s 757 mmHg 54%
    12:00 +26°C° 0 mm 3 m/s 757 mmHg 54%
    13:00 +26°C° 0 mm 3 m/s 757 mmHg 53%
    14:00 +27°C° 0 mm 4 m/s 757 mmHg 53%
    15:00 +26°C° 0 mm 4 m/s 757 mmHg 56%
    16:00 +25°C° 0 mm 4 m/s 757 mmHg 60%
    17:00 +25°C° 0 mm 4 m/s 757 mmHg 64%
    18:00 +22°C° 0 mm 4 m/s 757 mmHg 68%
    19:00 +21°C° 0 mm 3 m/s 758 mmHg 72%
    20:00 +19°C° 0 mm 3 m/s 758 mmHg 76%
    21:00 +19°C° 0 mm 3 m/s 758 mmHg 76%
    22:00 +19°C° 0 mm 2 m/s 758 mmHg 76%
    23:00 +18°C° 0 mm 2 m/s 758 mmHg 76%

    28 Maio, Terça-feira

    Tempo Temperatura Precipitação Vento Pressão Humidade
    00:00 +18°C° 0 mm 2 m/s 758 mmHg 76%
    01:00 +18°C° 0 mm 2 m/s 758 mmHg 76%
    02:00 +18°C° 0 mm 2 m/s 758 mmHg 76%
    03:00 +19°C° 0 mm 1 m/s 758 mmHg 76%
    04:00 +19°C° 0 mm 1 m/s 758 mmHg 76%
    05:00 +18°C° 0 mm 0 m/s 758 mmHg 76%
    06:00 +21°C° 0 mm 1 m/s 759 mmHg 71%
    07:00 +23°C° 0 mm 1 m/s 759 mmHg 66%
    08:00 +24°C° 0 mm 1 m/s 759 mmHg 61%
    09:00 +25°C° 0 mm 2 m/s 759 mmHg 59%
    10:00 +26°C° 0 mm 2 m/s 759 mmHg 58%
    11:00 +26°C° 0 mm 3 m/s 759 mmHg 56%
    12:00 +26°C° 0 mm 3 m/s 759 mmHg 56%
    13:00 +26°C° 0 mm 3 m/s 758 mmHg 55%
    14:00 +27°C° 0 mm 2 m/s 758 mmHg 54%
    15:00 +26°C° 0 mm 2 m/s 758 mmHg 55%
    16:00 +26°C° 0 mm 2 m/s 758 mmHg 57%
    17:00 +26°C° 0 mm 2 m/s 758 mmHg 58%
    18:00 +24°C° 0 mm 2 m/s 758 mmHg 61%
    19:00 +22°C° 0 mm 3 m/s 758 mmHg 64%
    20:00 +21°C° 0 mm 3 m/s 758 mmHg 66%
    21:00 +21°C° 0 mm 3 m/s 758 mmHg 68%
    22:00 +20°C° 0 mm 3 m/s 757 mmHg 69%
    23:00 +20°C° 0 mm 3 m/s 757 mmHg 70%

    29 Maio, Quarta-feira

    Tempo Temperatura Precipitação Vento Pressão Humidade
    00:00 +20°C° 0 mm 3 m/s 757 mmHg 73%
    01:00 +20°C° 0 mm 3 m/s 757 mmHg 76%
    02:00 +19°C° 0 mm 3 m/s 757 mmHg 79%
    03:00 +19°C° 0 mm 4 m/s 757 mmHg 80%
    04:00 +19°C° 0 mm 4 m/s 757 mmHg 80%
    05:00 +19°C° 0 mm 4 m/s 757 mmHg 81%
    06:00 +21°C° 0 mm 5 m/s 757 mmHg 75%
    07:00 +22°C° 0 mm 6 m/s 757 mmHg 69%
    08:00 +23°C° 0 mm 6 m/s 757 mmHg 63%
    09:00 +24°C° 0 mm 7 m/s 757 mmHg 61%
    10:00 +26°C° 0 mm 7 m/s 757 mmHg 59%
    11:00 +26°C° 0 mm 7 m/s 757 mmHg 57%
    12:00 +27°C° 0 mm 6 m/s 756 mmHg 56%
    13:00 +27°C° 0 mm 6 m/s 756 mmHg 55%
    14:00 +27°C° 0 mm 6 m/s 756 mmHg 54%
    15:00 +27°C° 0 mm 6 m/s 756 mmHg 55%
    16:00 +27°C° 0 mm 5 m/s 756 mmHg 57%
    17:00 +26°C° 0 mm 5 m/s 756 mmHg 59%
    18:00 +25°C° 0 mm 5 m/s 756 mmHg 62%
    19:00 +23°C° 0 mm 4 m/s 756 mmHg 66%
    20:00 +21°C° 0 mm 4 m/s 756 mmHg 69%
    21:00 +21°C° 0 mm 4 m/s 756 mmHg 70%
    22:00 +21°C° 0 mm 4 m/s 756 mmHg 70%
    23:00 +20°C° 0 mm 4 m/s 756 mmHg 71%

    30 Maio, Quinta-feira

    Tempo Temperatura Precipitação Vento Pressão Humidade
    00:00 +20°C° 0 mm 4 m/s 756 mmHg 71%
    01:00 +20°C° 0 mm 4 m/s 756 mmHg 71%
    02:00 +19°C° 0 mm 4 m/s 756 mmHg 71%
    03:00 +19°C° 0 mm 4 m/s 756 mmHg 73%
    04:00 +19°C° 0 mm 4 m/s 756 mmHg 74%
    05:00 +19°C° 0 mm 4 m/s 756 mmHg 76%
    06:00 +20°C° 0 mm 4 m/s 756 mmHg 70%
    07:00 +22°C° 0 mm 5 m/s 756 mmHg 64%
    08:00 +23°C° 0 mm 5 m/s 756 mmHg 59%
    09:00 +26°C° 0 mm 5 m/s 756 mmHg 56%
    10:00 +27°C° 0 mm 5 m/s 756 mmHg 52%
    11:00 +28°C° 0 mm 5 m/s 756 mmHg 49%
    12:00 +28°C° 0 mm 6 m/s 756 mmHg 47%
    13:00 +29°C° 0 mm 6 m/s 756 mmHg 46%
    14:00 +29°C° 0 mm 6 m/s 756 mmHg 44%
    15:00 +29°C° 0 mm 5 m/s 756 mmHg 47%
    16:00 +29°C° 0 mm 5 m/s 756 mmHg 49%
    17:00 +28°C° 0 mm 4 m/s 756 mmHg 52%
    18:00 +27°C° 0 mm 4 m/s 756 mmHg 55%
    19:00 +25°C° 0 mm 4 m/s 756 mmHg 57%
    20:00 +23°C° 0 mm 4 m/s 756 mmHg 60%
    21:00 +22°C° 0 mm 4 m/s 756 mmHg 63%
    22:00 +22°C° 0 mm 4 m/s 756 mmHg 65%
    23:00 +21°C° 0 mm 4 m/s 756 mmHg 68%
    Mostrar mais